Regional Weather Roundup
Issued by NWS

Home | Current Version | Previous Version | Graphics & Text | Print | Product List | Glossary On
Versions: 1 2 3 4 5 6 7 8 9 10 11 12 13 14 15 16 17 18 19 20 21 22 23 24 25 26 27 28 29 30 31 32 33 34 35 36 37 38 39 40 41 42 43 44 45 46 47 48 49 50
950
ASUS43 KIND 251509
RWRIN

WEATHER ROUNDUP FOR INDIANA
NATIONAL WEATHER SERVICE INDIANAPOLIS IN
1100 AM EDT SAT MAR 25 2017

NOTE: "FAIR" INDICATES FEW OR NO CLOUDS BELOW 12,000 FEET WITH NO
SIGNIFICANT WEATHER AND/OR OBSTRUCTIONS TO VISIBILITY.

* - STATION DOES NOT REPORT WEATHER SUCH AS PRECIPITATION OR FOG.

+ - STATION NOT QUALITY CONTROLLED BY THE NATIONAL WEATHER SERVICE.
    USE DATA WITH CAUTION...ESPECIALLY DEWPOINT AND RELATIVE
    HUMIDITY OBSERVATIONS.

INZ001>003-010>013-019-020-251600-
NORTHWEST INDIANA

CITY           SKY/WX    TMP DP  RH WIND       PRES   REMARKS
GARY /AIRPORT/ CLOUDY    41  41 100 NE8       30.03F FOG
KNOX *+        CLOUDY    54  43  66 E10       30.02F
LA PORTE +     CLOUDY    50  49  97 E13       30.04S FOG
MICHIGAN CITY+ PTSUNNY   52  52 100 E5        30.03F FOG
MONTICELLO +   CLOUDY    66  53  61 SE7G17    29.98F
RENSSELAER +   CLOUDY    54  52  94 E9        30.00R
VALPARAISO     PTSUNNY   54  52  93 E13       30.02S FOG

$$

LMZ046-743>745-251600-
SOUTHERN LAKE MICHIGAN

STATION/POSITION TIME  TEMP    WIND        PRES    WAVE
                       AIR SEA DIR/SP/G            HT
                 (UTC) (F)     (DEG/KT/KT) (MB)    (FT)
BURNS HARBOR     1504   40      80/ 13/ 15 1016.9
MICHIGAN CITY    1440   40      50/ 12/ 13   N/A

$$

INZ004-005-014>016-021>024-251600-
NORTH CENTRAL INDIANA

CITY           SKY/WX    TMP DP  RH WIND       PRES   REMARKS
ELKHART        CLOUDY    48  46  93 E9        30.08S FOG
GOSHEN         CLOUDY    54  48  80 E10       30.08S
LOGANSPORT +   PTSUNNY   64  52  63 S14G20    30.02F
PERU/GRISSOM   CLOUDY    65  54  66 S15       30.01S
ROCHESTER +    CLOUDY    64  55  72 E6        30.04F
SOUTH BEND     CLOUDY    49  47  93 E12       30.07F FOG
WARSAW +       CLOUDY    59  54  82 E9        30.07S

$$

INZ006>009-017-018-025>027-251600-
NORTHEAST INDIANA

CITY           SKY/WX    TMP DP  RH WIND       PRES   REMARKS
ANGOLA *+      MOSUNNY   52  46  82 E7        30.11R
AUBURN +       PTSUNNY   55  46  71 E10       30.11R
FORT WAYNE     CLOUDY    64  53  67 SE6       30.08S
HUNTINGTON +   CLOUDY    66  52  60 S10G16    30.06S
KENDALLVILLE + RAIN      52  48  86 E7        30.11R

$$

INZ028-029-035-036-043>045-051>053-251600-
WEST CENTRAL INDIANA

CITY           SKY/WX    TMP DP  RH WIND       PRES   REMARKS
CRAWFORDSVL +  CLOUDY    65  53  67 S15G22    29.99S
GREENCASTLE +  PTSUNNY   64  52  63 S16G26    30.01F
LAFAYETTE      CLOUDY    67  54  63 S16G23    29.98S
TERRE HAUTE    CLOUDY    67  52  58 S17G24    29.99R

$$

INZ030>032-037>040-046>048-054>057-064-065-251600-
CENTRAL INDIANA

CITY           SKY/WX    TMP DP  RH WIND       PRES   REMARKS
ANDERSON       SUNNY     64  52  63 S17G23    30.07S
CP ATTERBURY + CLOUDY    64  50  59 S14G22    30.08R
COLUMBUS       CLOUDY    64  52  63 S16G24    30.08S
FISHERS *+     CLOUDY    64  55  72 S14G24    30.05S
FRANKFORT +    PTSUNNY   68  55  61 S15G24    30.02S
GREENWOOD *+   CLOUDY    67  53  60 S14G20    30.07S
INDIANAPOLIS   CLOUDY    67  52  58 S18       30.04S
-EAGLE CREEK   PTSUNNY   68  51  54 S15G25    30.04S
KOKOMO +       PTSUNNY   66  53  63 S22G28    30.04S
MARION +       CLOUDY    65  52  62 S20G25    30.06S HAZE
MT COMFORT *+  CLOUDY    66  52  59 S16G25    30.07R
SHELBYVILLE    PTSUNNY   68  50  52 S22G29    30.07S
ZIONSVILLE +   CLOUDY    64  52  66 S12G20    30.05R

$$

INZ033-034-041-042-049-050-058-059-251600-
EAST CENTRAL INDIANA

CITY           SKY/WX    TMP DP  RH WIND       PRES   REMARKS
MUNCIE         CLOUDY    68  51  54 S16G33    30.07S
RICHMOND +     PTSUNNY   61  50  67 S17       30.12S

$$

INZ060-061-067>069-081>083-085>088-251600-
SOUTHWEST INDIANA

CITY           SKY/WX    TMP DP  RH WIND       PRES   REMARKS
EVANSVILLE     CLOUDY    66  53  63 SE8       30.00F
HUNTINGBURG *+ CLOUDY    69  55  60 S13G22    30.03F
WASHINGTON +   CLOUDY    64  51  61 CALM      30.01F

$$

INZ062-063-066-070>080-084-089>092-251600-
SOUTH CENTRAL AND SOUTHEAST INDIANA

CITY           SKY/WX    TMP DP  RH WIND       PRES   REMARKS
BEDFORD +      CLOUDY    64  50  59 S9        30.06S
BLOOMINGTON    PTSUNNY   66  51  58 S10       30.05R
MADISON *+     CLOUDY    64  46  52 S8        30.12F
NORTH VERNON + CLOUDY    66  48  52 S13G23    30.10

$$





USA.gov is the U.S. government's official web portal to all federal, state and local government web resources and services.